Tracking 19192 objects as of 21-Jun-2018
HD Live streaming from Space Station
objects crossing your sky now

THORAD AGENA D DEB

Track THORAD AGENA D DEB now!
10-day predictions


NORAD ID: 4768
Int'l Code: 1970-025DN
Perigee: 985.9 km
Apogee: 1,029.6 km
Inclination: 100.2 °
Period: 105.1 minutes
Semi major axis: 7378 km
RCS: 0.064 m2 (small)
Launch date: April 8, 1970
Source: United States (US)
Launch site: AIR FORCE WESTERN TEST RANGE (AFWTR)

Note: This is SATELLITE DEBRIS
aabbcc
Your satellite tracking list
Your tracking list is empty




NASA's NSSDC Master Catalog

Two Line Element Set (TLE):
1  4768U 70025DN  18171.80545234 +.00000076 +00000-0 +14361-3 0  9999
2  4768 100.2021 014.3848 0029580 202.5321 223.5479 13.69714092398127
Source of the keplerian elements: AFSPC